San Jose, Costa Rica

6:15 AM CST on September 21, 2017 (GMT -0600)
Juan Santamaria International

Weather History for MROC - July, 2013

Change the Weather History Date:

Thursday, July 11, 2013

  Actual Average Record
Temperature  
Mean Temperature 71 °F -  
Max Temperature 78 °F 80 °F 86 °F (1997)
Min Temperature 64 °F 65 °F 60 °F (1999)
Cooling Degree Days 6    
Growing Degree Days 21 (Base 50)    
Moisture  
Dew Point 64 °F    
Average Humidity 80    
Maximum Humidity 92    
Minimum Humidity 61    
Precipitation  
Precipitation 0.00 in 0.28 in - ()
Sea Level Pressure  
Sea Level Pressure 29.99 in    
Wind  
Wind Speed 7 mph ()    
Max Wind Speed 17 mph    
Max Gust Speed -    
Visibility 7.2 miles    
Events Fog , Rain    
Averages and records for this station are not official NWS values.
T = Trace of Precipitation, MM = Missing Value Source: Averaged Metar Reports

Daily Weather History Graph

Daily Weather History Graph

Search for Another Location

Airport or City:

Trip Planner

Search our weather history database for the weather conditions in past years. The results will help you decide how hot, cold, wet, or windy it might be!

Date:

Astronomy

Jul. 11, 2013 Rise Set
Actual Time 5:22 AM CST 6:02 PM CST
Civil Twilight 4:59 AM CST 6:25 PM CST
Nautical Twilight 4:32 AM CST 6:52 PM CST
Astronomical Twilight 4:05 AM CST 7:19 PM CST
Moon 7:58 AM CST (7/11) 8:30 PM CST (7/11)
Length of Visible Light 13h 25m
Length of Day
12h 40m
Waxing Crescent, 11% of the Moon is Illuminated
Jul 11
Waxing Crescent
Jul 15
First Quarter
Jul 22
Full
Jul 29
Last Quarter
Aug 6
New

Hourly Weather History & Observations

Time (CST) Temp. Dew Point Humidity Pressure Visibility Wind Dir Wind Speed Gust Speed Precip Events Conditions
12:00 AM 67 °F 65 °F 92% 29.91 in 9 mi WSW 6.9 mph - - Fog Light Fog
12:00 AM 68.0 °F 64.4 °F 88% 30.06 in 6.2 mi WSW 6.9 mph - N/A Fog Mostly Cloudy
1:00 AM 66.2 °F 62.6 °F 88% 30.04 in 6.2 mi West 10.4 mph - N/A Fog Mostly Cloudy
2:00 AM 66.2 °F 62.6 °F 88% 30.03 in 6.2 mi NW 4.6 mph - N/A Fog Mostly Cloudy
3:00 AM 66 °F 63 °F 86% 29.87 in 12 mi Calm Calm - -   Scattered Clouds
3:00 AM 66.2 °F 62.6 °F 88% 30.02 in 6.2 mi Calm Calm - N/A   Scattered Clouds
4:00 AM 66.2 °F 62.6 °F 88% 30.00 in 6.2 mi East 3.5 mph - N/A   Scattered Clouds
5:00 AM 66.2 °F 60.8 °F 83% 29.98 in 6.2 mi ESE 4.6 mph - N/A   Scattered Clouds
6:00 AM 66 °F 61 °F 80% 29.87 in 12 mi NE 8.1 mph - -   Scattered Clouds
6:00 AM 66.2 °F 60.8 °F 83% 30.00 in 6.2 mi NE 8.1 mph - N/A   Mostly Cloudy
7:00 AM 71.6 °F 62.6 °F 73% 30.01 in 6.2 mi NNW 8.1 mph - N/A   Mostly Cloudy
7:15 AM 73.4 °F 64.4 °F 73% 30.01 in 6.2 mi WSW 6.9 mph - N/A   Mostly Cloudy
8:00 AM 75.2 °F 62.6 °F 65% 30.02 in 6.2 mi ESE 12.7 mph - N/A   Mostly Cloudy
9:00 AM 72 °F 65 °F 73% 29.87 in 12 mi WSW 15.0 mph - -   Overcast
9:00 AM 77.0 °F 62.6 °F 61% 30.03 in 6.2 mi ESE 12.7 mph - N/A   Mostly Cloudy
10:00 AM 75.2 °F 64.4 °F 69% 30.02 in 6.2 mi ESE 12.7 mph - N/A   Mostly Cloudy
11:00 AM 77.0 °F 64.4 °F 65% 30.02 in 6.2 mi ESE 9.2 mph - N/A   Mostly Cloudy
11:35 AM 71.6 °F 64.4 °F 78% 30.02 in 6.2 mi SW 17.3 mph - N/A   Mostly Cloudy
12:00 PM 72 °F 65 °F 73% 29.87 in 12 mi WSW 15.0 mph - -   Overcast
12:00 PM 71.6 °F 64.4 °F 78% 30.02 in 6.2 mi WSW 15.0 mph - N/A   Mostly Cloudy
1:00 PM 71.6 °F 64.4 °F 78% 30.02 in 6.2 mi West 13.8 mph - N/A   Mostly Cloudy
2:00 PM 73.4 °F 64.4 °F 73% 30.01 in 6.2 mi West 6.9 mph - N/A   Mostly Cloudy
3:00 PM 72 °F 63 °F 67% 29.85 in 12 mi WSW 5.8 mph - -   Overcast
3:00 PM 71.6 °F 62.6 °F 73% 29.99 in 6.2 mi WSW 5.8 mph - N/A   Mostly Cloudy
4:00 PM 71.6 °F 64.4 °F 78% 29.99 in 6.2 mi WSW 4.6 mph - N/A   Mostly Cloudy
5:00 PM 69.8 °F 64.4 °F 83% 30.00 in 6.2 mi SW 8.1 mph - N/A   Mostly Cloudy
6:00 PM 69 °F 64 °F 79% 29.92 in 6 mi West 6.9 mph - - Rain Rain
6:00 PM 69.8 °F 64.4 °F 83% 30.03 in 6.2 mi West 6.9 mph - N/A Rain Rain
7:00 PM 68.0 °F 64.4 °F 88% 30.04 in 6.2 mi WSW 3.5 mph - N/A Fog Light Drizzle
8:00 PM 68.0 °F 64.4 °F 88% 30.05 in 6.2 mi WNW 3.5 mph - N/A Fog Patches of Fog
9:00 PM 68 °F 64 °F 83% 29.90 in 9 mi SW 2.3 mph - -   Overcast
9:00 PM 68.0 °F 64.4 °F 88% 30.07 in 6.2 mi SW 2.3 mph - N/A   Mostly Cloudy
10:00 PM 68.0 °F 64.4 °F 88% 30.08 in 6.2 mi SE 2.3 mph - N/A   Mostly Cloudy
11:00 PM 68.0 °F 64.4 °F 88% 30.06 in 6.2 mi ENE 3.5 mph - N/A   Mostly Cloudy